Phoenix-Mesa Gateway Airport, AZ

10:31 AM MST on June 23, 2017 (GMT -0700)
Phoenix-Mesa Gateway Airport

Weather History for KIWA - December, 2012

Change the Weather History Date:

Monday, December 31, 2012

  Actual Average Record
Temperature  
Mean Temperature 45 °F -  
Max Temperature 53 °F 62 °F 77 °F (2011)
Min Temperature 37 °F 38 °F 28 °F (2015)
Degree Days  
Heating Degree Days 20    
Moisture  
Dew Point 36 °F    
Average Humidity 77    
Maximum Humidity 87    
Minimum Humidity 47    
Precipitation  
Precipitation 0.00 in - - ()
Sea Level Pressure  
Sea Level Pressure 30.11 in    
Wind  
Wind Speed 5 mph (SE)    
Max Wind Speed 8 mph    
Max Gust Speed -    
Visibility 12 miles    
Events      
Averages and records for this station are not official NWS values.
T = Trace of Precipitation, MM = Missing Value Source: NWS Daily Summary

Daily Weather History Graph

Daily Weather History Graph

Search for Another Location

Airport or City:

Trip Planner

Search our weather history database for the weather conditions in past years. The results will help you decide how hot, cold, wet, or windy it might be!

Date:

Astronomy

Dec. 31, 2012 Rise Set
Actual Time 7:30 AM MST 5:29 PM MST
Civil Twilight 7:02 AM MST 5:57 PM MST
Nautical Twilight 6:31 AM MST 6:28 PM MST
Astronomical Twilight 6:01 AM MST 6:58 PM MST
Moon 8:52 PM MST (12/31) 9:23 AM MST (12/31)
Length of Visible Light 10h 54m
Length of Day
9h 59m
Waning Gibbous, 90% of the Moon is Illuminated
Dec 31
Waning Gibbous
Jan 4
Last Quarter
Jan 11
New
Jan 18
First Quarter
Jan 26
Full

Hourly Weather History & Observations

Time (MST) Temp. Windchill Dew Point Humidity Pressure Visibility Wind Dir Wind Speed Gust Speed Precip Events Conditions
12:15 AM 42.8 °F 39.3 °F 37.4 °F 81% 29.99 in 10.0 mi SE 5.8 mph - N/A   Scattered Clouds
12:35 AM 42.8 °F 39.3 °F 37.4 °F 81% 29.99 in 10.0 mi SE 5.8 mph - N/A   Scattered Clouds
12:55 AM 42.8 °F 40.1 °F 37.4 °F 81% 29.99 in 10.0 mi SE 4.6 mph - N/A   Scattered Clouds
1:15 AM 42.8 °F 38.0 °F 37.4 °F 81% 29.99 in 10.0 mi ESE 8.1 mph - N/A   Scattered Clouds
1:35 AM 42.8 °F 38.0 °F 37.4 °F 81% 30.00 in 10.0 mi ESE 8.1 mph - N/A   Scattered Clouds
1:55 AM 42.8 °F 38.0 °F 37.4 °F 81% 30.00 in 10.0 mi ESE 8.1 mph - N/A   Scattered Clouds
2:15 AM 42.8 °F 38.0 °F 37.4 °F 81% 30.00 in 10.0 mi SE 8.1 mph - N/A   Scattered Clouds
2:35 AM 42.8 °F 38.6 °F 37.4 °F 81% 30.00 in 10.0 mi SE 6.9 mph - N/A   Clear
2:55 AM 41.0 °F 36.4 °F 37.4 °F 87% 30.01 in 10.0 mi SE 6.9 mph - N/A   Clear
3:15 AM 41.0 °F 35.8 °F 35.6 °F 81% 30.01 in 10.0 mi SE 8.1 mph - N/A   Clear
3:35 AM 41.0 °F 37.1 °F 35.6 °F 81% 30.02 in 10.0 mi SE 5.8 mph - N/A   Scattered Clouds
3:55 AM 41.0 °F 37.1 °F 37.4 °F 87% 30.02 in 10.0 mi ESE 5.8 mph - N/A   Scattered Clouds
4:15 AM 42.8 °F 39.3 °F 37.4 °F 81% 30.02 in 10.0 mi SE 5.8 mph - N/A   Scattered Clouds
4:35 AM 42.8 °F 38.6 °F 39.2 °F 87% 30.02 in 10.0 mi ESE 6.9 mph - N/A   Clear
4:55 AM 42.8 °F 39.3 °F 39.2 °F 87% 30.02 in 10.0 mi ESE 5.8 mph - N/A   Clear
5:15 AM 42.8 °F 40.1 °F 39.2 °F 87% 30.03 in 10.0 mi ESE 4.6 mph - N/A   Clear
5:47 AM 42.8 °F 39.3 °F 39.2 °F 87% 30.03 in 20.0 mi ESE 5.8 mph - N/A   Mostly Cloudy
6:47 AM 41.0 °F 38.0 °F 37.4 °F 87% 30.07 in 20.0 mi East 4.6 mph - N/A   Mostly Cloudy
7:47 AM 41.0 °F 38.0 °F 37.4 °F 87% 30.09 in 45.0 mi ESE 4.6 mph - N/A   Scattered Clouds
8:47 AM 42.8 °F 39.3 °F 39.2 °F 87% 30.12 in 45.0 mi East 5.8 mph - N/A   Scattered Clouds
9:49 AM 46.4 °F 45.2 °F 37.4 °F 71% 30.14 in 45.0 mi Variable 3.5 mph - N/A   Scattered Clouds
10:47 AM 46.4 °F 45.2 °F 39.2 °F 76% 30.16 in 45.0 mi Variable 3.5 mph - N/A   Mostly Cloudy
11:47 AM 48.2 °F - 37.4 °F 66% 30.15 in 45.0 mi Calm Calm - N/A   Mostly Cloudy
12:47 PM 48.2 °F - 37.4 °F 66% 30.14 in 45.0 mi West 4.6 mph - N/A   Mostly Cloudy
1:47 PM 53.6 °F - 37.4 °F 54% 30.13 in 45.0 mi WSW 4.6 mph - N/A   Mostly Cloudy
2:47 PM 53.6 °F - 35.6 °F 51% 30.14 in 45.0 mi West 4.6 mph - N/A   Mostly Cloudy
3:47 PM 53.6 °F - 33.8 °F 47% 30.14 in 45.0 mi WSW 6.9 mph - N/A   Mostly Cloudy
4:47 PM 53.6 °F - 33.8 °F 47% 30.15 in 45.0 mi Calm Calm - N/A   Mostly Cloudy
5:47 PM 51.8 °F - 32.0 °F 47% 30.16 in 20.0 mi West 3.5 mph - N/A   Scattered Clouds
6:47 PM 48.2 °F - 32.0 °F 54% 30.17 in 20.0 mi ESE 3.5 mph - N/A   Scattered Clouds
7:47 PM 42.8 °F 41.1 °F 35.6 °F 76% 30.18 in 20.0 mi SE 3.5 mph - N/A   Scattered Clouds
7:55 PM 41.0 °F 37.1 °F 33.8 °F 76% 30.18 in 10.0 mi SSE 5.8 mph - N/A   Clear
8:15 PM 41.0 °F 38.0 °F 33.8 °F 76% 30.19 in 10.0 mi SSE 4.6 mph - N/A   Clear
8:35 PM 41.0 °F 38.0 °F 32.0 °F 70% 30.19 in 10.0 mi SE 4.6 mph - N/A   Clear
8:47 PM 42.8 °F 40.1 °F 33.8 °F 70% 30.19 in 20.0 mi SE 4.6 mph - N/A   Partly Cloudy
8:55 PM 41.0 °F 38.0 °F 33.8 °F 76% 30.20 in 10.0 mi East 4.6 mph - N/A   Clear
9:15 PM 41.0 °F - 33.8 °F 76% 30.20 in 10.0 mi Calm Calm - N/A   Clear
9:35 PM 41.0 °F - 33.8 °F 76% 30.21 in 10.0 mi Calm Calm - N/A   Clear
9:55 PM 39.2 °F - 35.6 °F 87% 30.21 in 10.0 mi Calm Calm - N/A   Clear
10:15 PM 37.4 °F 32.8 °F 33.8 °F 87% 30.21 in 10.0 mi East 5.8 mph - N/A   Clear
10:35 PM 39.2 °F 35.0 °F 33.8 °F 81% 30.22 in 10.0 mi East 5.8 mph - N/A   Clear
10:55 PM 41.0 °F - 35.6 °F 81% 30.22 in 10.0 mi Calm Calm - N/A   Clear
11:15 PM 37.4 °F 32.8 °F 33.8 °F 87% 30.22 in 10.0 mi East 5.8 mph - N/A   Clear
11:35 PM 37.4 °F 32.8 °F 33.8 °F 87% 30.23 in 10.0 mi ESE 5.8 mph - N/A   Clear
11:55 PM 37.4 °F 33.8 °F 33.8 °F 87% 30.23 in 10.0 mi ESE 4.6 mph - N/A   Clear